WGS F3 (USA 211)

Last updated on Sun Jun 21 2026 00:03:04 GMT+0000 (Coordinated Universal Time)

1 36108U 09068A 26171.03517034 .00000059 00000+0 00000+0 0 9993 2 36108 0.3243 85.7411 0000228 285.9294 139.2418 1.00271023 46621
UTC large
Height (km)
Speed (km/s)
/
Latitude / Longitude
Inclination (degrees)
Orbital Period (minutes)
Azimuth
Elevation
Range (km)
Doppler Factor

Next 0 passes for location: London (51.5072 / 0.1276)

No passes found over London.
WGS F3 (USA 211)